| time (UTC) | temp F | wind direction | speed MPH | gust MPH | rain 1hr in | rain 24hr in | rain mn in | humidity % | barometer mb |
| 20260510015917 | 65 | 220 | 6.0 | 14.0 | 0.00 | 0.00 | 0.00 | 74 | 1002.3 |
| 20260510014414 | 65 | 226 | 7.0 | 14.0 | 0.00 | 0.00 | 0.00 | 78 | 1002.2 |
| 20260510013600 | 64 | 216 | 4.0 | 22.0 | 0.00 | 0.00 | 0.00 | 78 | 1002.4 |
| 20260510012101 | 64 | 245 | 7.0 | 15.0 | 0.00 | 0.00 | 0.00 | 79 | 1002.4 |
| 20260510005904 | 64 | 292 | 8.0 | 17.0 | 0.00 | 0.01 | 0.00 | 78 | 1002.4 |
| 20260510004405 | 65 | 267 | 11.0 | 24.0 | 0.00 | 0.01 | 0.00 | 76 | 1002.4 |
| 20260510002900 | 66 | 267 | 17.0 | 23.0 | 0.00 | 0.01 | 0.00 | 76 | 1002.5 |
| 20260510001400 | 66 | 257 | 13.0 | 25.0 | 0.00 | 0.01 | 0.00 | 75 | 1002.6 |
| 20260509235855 | 65 | 234 | 17.0 | 25.0 | 0.00 | 0.01 | 0.00 | 73 | 1002.6 |
| 20260509234356 | 65 | 246 | 13.0 | 22.0 | 0.00 | 0.01 | 0.00 | 75 | 1002.7 |
| 20260509232852 | 64 | 209 | 13.0 | 19.0 | 0.00 | 0.01 | 0.00 | 77 | 1003.0 |
| 20260509231352 | 63 | 201 | 10.0 | 25.0 | 0.00 | 0.01 | 0.00 | 79 | 1003.4 |
| 20260509225848 | 63 | 235 | 16.0 | 24.0 | 0.00 | 0.01 | 0.00 | 78 | 1003.3 |
| 20260509224348 | 62 | 234 | 7.0 | 14.0 | 0.00 | 0.01 | 0.00 | 82 | 1003.2 |
| 20260509222844 | 62 | 257 | 11.0 | 20.0 | 0.00 | 0.01 | 0.00 | 83 | 1003.1 |
| 20260509221340 | 61 | 268 | 15.0 | 21.0 | 0.00 | 0.01 | 0.00 | 85 | 1003.1 |
| 20260509215835 | 60 | 0 | 13.0 | 18.0 | 0.00 | 0.01 | 0.00 | 87 | 1003.2 |
| 20260509215032 | 60 | 271 | 13.0 | 21.0 | 0.00 | 0.01 | 0.00 | 86 | 1003.1 |
| 20260509212831 | 60 | 275 | 11.0 | 18.0 | 0.00 | 0.01 | 0.00 | 86 | 1003.2 |
| 20260509211327 | 59 | 269 | 13.0 | 16.0 | 0.00 | 0.01 | 0.00 | 87 | 1003.4 |
| 20260509205827 | 58 | 265 | 10.0 | 18.0 | 0.00 | 0.01 | 0.00 | 89 | 1003.4 |
| 20260509204323 | 58 | 265 | 14.0 | 18.0 | 0.00 | 0.01 | 0.00 | 88 | 1003.7 |
| 20260509203516 | 58 | 247 | 11.0 | 14.0 | 0.00 | 0.01 | 0.00 | 88 | 1003.5 |
| 20260509201319 | 58 | 246 | 9.0 | 11.0 | 0.00 | 0.01 | 0.00 | 89 | 1003.3 |
| 20260509195815 | 57 | 295 | 7.0 | 9.0 | 0.00 | 0.01 | 0.00 | 89 | 1003.2 |
| 20260509194317 | 57 | 275 | 5.0 | 13.0 | 0.00 | 0.01 | 0.00 | 89 | 1003.2 |
| 20260509192810 | 56 | 286 | 7.0 | 9.0 | 0.00 | 0.01 | 0.00 | 90 | 1003.0 |
| 20260509191311 | 56 | 307 | 6.0 | 9.0 | 0.00 | 0.01 | 0.00 | 90 | 1002.9 |
| 20260509185807 | 56 | 325 | 3.0 | 9.0 | 0.00 | 0.01 | 0.00 | 91 | 1003.0 |
| 20260509185012 | 55 | 311 | 7.0 | 10.0 | 0.00 | 0.01 | 0.00 | 91 | 1003.0 |
| 20260509182759 | 55 | 325 | 5.0 | 9.0 | 0.00 | 0.01 | 0.00 | 92 | 1003.1 |
| 20260509181958 | 54 | 319 | 2.0 | 6.0 | 0.00 | 0.01 | 0.00 | 92 | 1003.0 |
| 20260509175755 | 55 | 296 | 3.0 | 9.0 | 0.00 | 0.01 | 0.00 | 92 | 1002.9 |
| 20260509174250 | 54 | 257 | 5.0 | 9.0 | 0.00 | 0.01 | 0.00 | 93 | 1002.7 |
| 20260509172748 | 53 | 29 | 1.0 | 4.0 | 0.00 | 0.01 | 0.00 | 92 | 1002.7 |
| 20260509171247 | 54 | 343 | 1.0 | 6.0 | 0.00 | 0.01 | 0.00 | 91 | 1002.7 |
| 20260509165742 | 55 | 290 | 2.0 | 7.0 | 0.00 | 0.01 | 0.00 | 92 | 1002.7 |
| 20260509164237 | 55 | 280 | 7.0 | 9.0 | 0.00 | 0.01 | 0.00 | 93 | 1002.6 |
| 20260509162735 | 55 | 296 | 5.0 | 9.0 | 0.00 | 0.01 | 0.00 | 93 | 1002.4 |
| 20260509161229 | 55 | 268 | 6.0 | 8.0 | 0.00 | 0.01 | 0.00 | 93 | 1002.5 |
| 20260509160427 | 55 | 257 | 3.0 | 6.0 | 0.00 | 0.01 | 0.00 | 94 | 1002.6 |
| 20260509154224 | 55 | 269 | 3.0 | 7.0 | 0.00 | 0.01 | 0.00 | 93 | 1002.7 |
| 20260509152726 | 55 | 281 | 4.0 | 7.0 | 0.00 | 0.01 | 0.00 | 93 | 1002.9 |
| 20260509151221 | 55 | 248 | 5.0 | 7.0 | 0.00 | 0.01 | 0.00 | 93 | 1003.1 |
| 20260509145721 | 55 | 268 | 1.0 | 3.0 | 0.00 | 0.01 | 0.00 | 93 | 1003.1 |
| 20260509144908 | 56 | 322 | 2.0 | 3.0 | 0.00 | 0.03 | 0.00 | 93 | 1003.2 |
| 20260509142708 | 56 | 322 | 2.0 | 3.0 | 0.00 | 0.06 | 0.00 | 92 | 1003.3 |
| 20260509141208 | 57 | 332 | 0.0 | 2.0 | 0.00 | 0.06 | 0.00 | 92 | 1003.2 |
| 20260509135704 | 58 | 317 | 0.0 | 4.0 | 0.00 | 0.10 | 0.00 | 92 | 1003.2 |
| 20260509134205 | 58 | 208 | 2.0 | 8.0 | 0.00 | 0.16 | 0.00 | 92 | 1003.3 |
| 20260509132700 | 58 | 259 | 3.0 | 6.0 | 0.00 | 0.17 | 0.00 | 92 | 1003.2 |
| 20260509131207 | 58 | 284 | 4.0 | 9.0 | 0.00 | 0.18 | 0.00 | 91 | 1003.1 |
| 20260509130352 | 59 | 295 | 8.0 | 13.0 | 0.00 | 0.19 | 0.00 | 91 | 1003.2 |
| 20260509124152 | 59 | 288 | 9.0 | 14.0 | 0.00 | 0.21 | 0.00 | 91 | 1003.4 |
| 20260509124102 | 59 | 286 | 9.0 | 16.0 | 0.00 | 0.21 | 0.00 | 91 | 1003.5 |
| 20260509121144 | 59 | 275 | 13.0 | 17.0 | 0.00 | 0.21 | 0.00 | 91 | 1003.8 |
| 20260509115640 | 60 | 268 | 9.0 | 19.0 | 0.00 | 0.21 | 0.21 | 91 | 1003.6 |
| 20260509114139 | 60 | 236 | 14.0 | 20.0 | 0.00 | 0.21 | 0.21 | 91 | 1003.4 |
| 20260509112635 | 60 | 262 | 12.0 | 14.0 | 0.00 | 0.21 | 0.21 | 92 | 1003.6 |
| 20260509111131 | 59 | 261 | 6.0 | 9.0 | 0.00 | 0.21 | 0.21 | 92 | 1003.4 |
| 20260509105632 | 59 | 314 | 3.0 | 9.0 | 0.00 | 0.21 | 0.21 | 92 | 1003.4 |
| 20260509104127 | 59 | 274 | 6.0 | 9.0 | 0.00 | 0.21 | 0.21 | 92 | 1003.5 |
| 20260509102627 | 59 | 242 | 1.0 | 3.0 | 0.00 | 0.21 | 0.21 | 92 | 1003.5 |
| 20260509101124 | 59 | 304 | 0.0 | 3.0 | 0.00 | 0.21 | 0.21 | 91 | 1003.6 |
| 20260509095619 | 59 | 298 | 4.0 | 9.0 | 0.00 | 0.21 | 0.21 | 91 | 1003.9 |
| 20260509094119 | 59 | 338 | 5.0 | 10.0 | 0.00 | 0.21 | 0.21 | 91 | 1004.0 |
| 20260509092615 | 60 | 275 | 5.0 | 10.0 | 0.00 | 0.22 | 0.21 | 91 | 1004.1 |
| 20260509091111 | 60 | 299 | 5.0 | 9.0 | 0.00 | 0.22 | 0.21 | 90 | 1004.1 |
| 20260509085612 | 60 | 285 | 2.0 | 8.0 | 0.00 | 0.22 | 0.21 | 89 | 1004.2 |
| 20260509084107 | 60 | 273 | 5.0 | 13.0 | 0.00 | 0.22 | 0.21 | 89 | 1004.2 |
| 20260509082607 | 61 | 282 | 10.0 | 15.0 | 0.00 | 0.22 | 0.21 | 89 | 1004.1 |
| 20260509081104 | 61 | 297 | 9.0 | 12.0 | 0.00 | 0.22 | 0.21 | 90 | 1003.8 |
| 20260509075603 | 60 | 307 | 4.0 | 6.0 | 0.00 | 0.22 | 0.21 | 90 | 1003.8 |
| 20260509074101 | 60 | 299 | 2.0 | 5.0 | 0.00 | 0.22 | 0.21 | 89 | 1003.8 |
| 20260509072555 | 60 | 296 | 4.0 | 8.0 | 0.00 | 0.22 | 0.21 | 90 | 1003.8 |
| 20260509071056 | 60 | 288 | 3.0 | 7.0 | 0.00 | 0.22 | 0.21 | 89 | 1003.8 |
| 20260509065550 | 60 | 291 | 4.0 | 7.0 | 0.00 | 0.22 | 0.21 | 89 | 1003.8 |
| 20260509064739 | 61 | 288 | 4.0 | 7.0 | 0.00 | 0.22 | 0.21 | 89 | 1003.8 |
| 20260509062542 | 61 | 295 | 5.0 | 8.0 | 0.00 | 0.22 | 0.21 | 88 | 1003.7 |
| 20260509061043 | 62 | 315 | 3.0 | 4.0 | 0.00 | 0.23 | 0.21 | 86 | 1003.5 |
| 20260509055540 | 62 | 327 | 3.0 | 4.0 | 0.00 | 0.23 | 0.21 | 86 | 1003.5 |
| 20260509054033 | 62 | 290 | 4.0 | 7.0 | 0.00 | 0.23 | 0.21 | 85 | 1003.3 |
| 20260509052529 | 63 | 302 | 2.0 | 9.0 | 0.00 | 0.23 | 0.21 | 85 | 1003.4 |
| 20260509051025 | 64 | 260 | 10.0 | 14.0 | 0.00 | 0.23 | 0.21 | 85 | 1003.6 |
| 20260509050225 | 65 | 246 | 10.0 | 14.0 | 0.00 | 0.23 | 0.21 | 85 | 1003.6 |
| 20260509044021 | 65 | 258 | 8.0 | 12.0 | 0.00 | 0.23 | 0.21 | 85 | 1003.6 |
| 20260509042521 | 65 | 331 | 3.0 | 8.0 | 0.00 | 0.23 | 0.21 | 85 | 1003.5 |
| 20260509042416 | 65 | 299 | 4.0 | 8.0 | 0.00 | 0.23 | 0.21 | 83 | 1003.6 |
| 20260509035518 | 65 | 285 | 3.0 | 15.0 | 0.00 | 0.23 | 0.21 | 83 | 1003.8 |
| 20260509034013 | 65 | 270 | 4.0 | 10.0 | 0.00 | 0.23 | 0.21 | 82 | 1003.8 |
| 20260509032513 | 66 | 261 | 8.0 | 16.0 | 0.00 | 0.23 | 0.21 | 80 | 1003.8 |
| 20260509031009 | 68 | 264 | 11.0 | 16.0 | 0.00 | 0.23 | 0.21 | 78 | 1003.8 |
| 20260509025509 | 68 | 273 | 3.0 | 10.0 | 0.00 | 0.23 | 0.21 | 80 | 1003.8 |
| 20260509024701 | 67 | 294 | 6.0 | 11.0 | 0.00 | 0.23 | 0.21 | 79 | 1003.8 |
| 20260509022504 | 67 | 292 | 8.0 | 15.0 | 0.00 | 0.23 | 0.21 | 81 | 1004.1 |